Location: Dixon
(37.9953°N, 92.0959°W)
Time: 16:30:14
(UTC+00:00)

Tiangong - Visible Passes

Search period start: 07 December 2025 00:00
Search period end: 17 December 2025 00:00
Orbit: 385 x 397 km, 41.5° (Epoch: 06 December)

Date Brightness Start Highest point End Pass type
(mag) Time Alt. Az. Time Alt. Az. Time Alt. Az.
07 Dec -1.9 11:31:34 58° N 11:31:40 58° NNE 11:34:52 10° E visible
08 Dec 1.3 10:36:43 13° E 10:36:43 13° E 10:37:05 10° E visible
08 Dec -1.8 12:09:04 21° W 12:11:00 59° SSW 12:14:11 10° SE visible
09 Dec -1.0 11:14:12 45° ESE 11:14:12 45° ESE 11:16:34 10° ESE visible
10 Dec -1.0 11:51:40 27° WSW 11:52:26 31° SSW 11:55:19 10° SE visible
11 Dec 0.5 10:56:47 19° SE 10:56:47 19° SE 10:57:51 10° SE visible
12 Dec 0.2 11:34:15 15° SSW 11:34:15 15° SSW 11:35:39 10° S visible
